Content
SEND FEEDBACK

Daily
Averages
Monthly
Summary
United States of America

NEW YORK - UPPER EAST SIDE, NEW YORK


Home > North America > United States > New York
Elevation: 132 feet     Latitude: 40 47N     Longitude: 073 58W

WEATHER
 
SELECT A DAY
Number of Records: 148,168;   Date Range: 11/1/95 - 8/12/14
 
SHARE

PRINT THIS DATA

[ ← Previous Day ]
WEATHER ALMANAC - MARCH 26, 2013
[ Next Day → ]
[ °C ]   °F
Weather ElementAverageHighLow
Temperature43.7 °F51.1 °F (12:51 pm)37 °F (2:51 am)
Dewpoint25.6 °F30 °F (1:51 am)21.9 °F (1:51 pm)
Humidity50.9 %73 % (1:51 am)33 % (1:51 pm)
Barometer29.74 in29.86 in (10:51 pm)29.61 in (1:51 am)
Wind Speed4.7 mph9.2 mph (2:51 pm)
Wind Gust18.4 mph (4:51 pm)
Weather ElementAverage
Visibility10 mi
Wind DirectionSSE (159.6 °)

Weather ElementTotal
Precipitation---
Heating Degree Days21 (Base 65)
Averaged from 23 records on March 26, 2013
WEATHER CONDITIONS BREAKOUT
WIND DIRECTION BREAKOUT
WEATHER BY HOUR - MARCH 26, 2013
[ °C ]   °F
Local TimeTemperatureDewpointHumidityBarometerVisibilityWind DirectionWind SpeedGust SpeedPrecipitationEventsConditions
1:51 AM37.9 °F30.0 °F73 %29.61 in10.0 miNW (310°)3.5 mphMostly Cloudy
2:51 AM37.0 °F28.9 °F73 %29.62 in10.0 miCalmClear
3:51 AM37.9 °F28.0 °F68 %29.63 in10.0 miCalmOvercast
4:51 AM37.9 °F27.0 °F65 %29.65 in10.0 miNW (320°)4.6 mphOvercast
5:51 AM37.9 °F28.0 °F68 %29.67 in10.0 miWest (280°)4.6 mphOvercast
6:51 AM37.9 °F27.0 °F65 %29.69 in10.0 miWest (280°)6.9 mphOvercast
7:51 AM39.0 °F28.0 °F65 %29.71 in10.0 miVariable3.5 mphOvercast
8:51 AM39.9 °F27.0 °F60 %29.73 in10.0 miWest (270°)5.8 mphOvercast
9:51 AM42.1 °F27.0 °F55 %29.73 in10.0 miNorthOvercast
10:51 AM45.0 °F28.0 °F52 %29.74 in10.0 miVariable3.5 mphMostly Cloudy
11:51 AM46.9 °F26.1 °F44 %29.73 in10.0 miVariable4.6 mphScattered Clouds
12:51 PM51.1 °F24.1 °F35 %29.73 in10.0 miVariable4.6 mphScattered Clouds
1:51 PM50.0 °F21.9 °F33 %29.73 in10.0 miNW (310°)8.1 mphMostly Cloudy
2:51 PM48.9 °F21.9 °F35 %29.73 in10.0 miNorth (360°)9.2 mphOvercast
3:51 PM48.9 °F23.0 °F36 %29.73 in10.0 miCalmOvercast
4:51 PM51.1 °F24.1 °F35 %29.75 in10.0 miNE (50°)8.1 mph18.4 mphOvercast
5:51 PM48.0 °F24.1 °F39 %29.76 in10.0 miWNW (290°)8.1 mphOvercast
6:51 PM46.9 °F24.1 °F41 %29.79 in10.0 miVariable5.8 mphMostly Cloudy
7:51 PM45.0 °F25.0 °F46 %29.81 in10.0 miNW (310°)4.6 mphPartly Cloudy
8:51 PM46.0 °F24.1 °F42 %29.83 in10.0 miVariable3.5 mphClear
9:51 PM44.1 °F24.1 °F45 %29.85 in10.0 miWNW (300°)4.6 mphClear
10:51 PM43.0 °F24.1 °F47 %29.86 in10.0 miNW (310°)6.9 mphClear
11:51 PM42.1 °F24.1 °F49 %29.86 in10.0 miWest (280°)3.5 mphClear
Hourly data recorded from KNYC, located miles away from New York - Upper East Side, New York







STORIES FROM OUR PARTNERS